Regional Weather Roundup
Issued by NWS

Home | Current Version | Previous Version | Text Only | Print | Product List | Glossary On
Versions: 1 2 3 4 5 6 7 8 9 10 11 12 13 14 15 16 17 18 19 20 21 22 23 24 25 26 27 28 29 30 31 32 33 34 35 36 37 38 39 40 41 42 43 44 45 46 47 48 49 50
000
ASUS43 KLMK 201602
RWRKY
KENTUCKY REGIONAL WEATHER ROUNDUP
NATIONAL WEATHER SERVICE LOUISVILLE KY
1200 PM EDT SUN APR 20 2014

NOTE "FAIR" INDICATES FEW OR NO CLOUDS BELOW 12,000 FEET
WITH NO SIGNIFICANT WEATHER AND/OR OBSTRUCTIONS TO VISIBILITY.

KYZ001>023-026-027-061>063-070>075-201700-
WESTERN AND SOUTH CENTRAL KENTUCKY

CITY           SKY/WX    TMP DP  RH WIND       PRES   REMARKS
PADUCAH        MOSUNNY   74  42  31 SE8       30.21F
HENDERSON      SUNNY     68  43  40 SE3       30.22F
OWENSBORO      SUNNY     69  45  42 VRB5      30.23F
HOPKINSVILLE   SUNNY     73  45  35 VRB3      30.22F
BOWLING GREEN  SUNNY     69  40  34 VRB3      30.22F
GLASGOW        NOT AVBL
$$

KYZ024-025-028>034-038-045-046-053-201700-
NORTH CENTRAL KENTUCKY

CITY           SKY/WX    TMP DP  RH WIND       PRES   REMARKS
LOUISVILLE/SDF MOSUNNY   69  40  34 CALM      30.23F
LOUISVILLE/LOU SUNNY     71  40  32 CALM      30.23F
FORT KNOX      SUNNY     68  39  34 VRB1      30.22F
$$

KYZ035>037-039>044-047>052-055>060-089>105-201700-
NORTHEAST KENTUCKY

CITY           SKY/WX    TMP DP  RH WIND       PRES   REMARKS
LEXINGTON      SUNNY     68  41  37 CALM      30.24F
COVINGTON      MOSUNNY   68  37  32 CALM      30.24F
FRANKFORT      SUNNY     68  42  38 CALM      30.23F
$$

KYZ054-064>069-076>088-106>120-201700-
SOUTHEAST KENTUCKY

CITY           SKY/WX    TMP DP  RH WIND       PRES   REMARKS
JACKSON        SUNNY     68  37  32 SE7       30.26F
LONDON         SUNNY     69  40  34 VRB3      30.25F
SOMERSET       NOT AVBL
MIDDLESBORO    NOT AVBL
MONTICELLO     SUNNY     72  43  35 CALM      30.25F
$$




USA.gov is the U.S. government's official web portal to all federal, state and local government web resources and services.